Date,TemperatureHighF,TemperatureAvgF,TemperatureLowF,DewpointHighF,DewpointAvgF,DewpointLowF,HumidityHigh,HumidityAvg,HumidityLow,PressureMaxIn,PressureMinIn,WindSpeedMaxMPH,WindSpeedAvgMPH,GustSpeedMaxMPH,PrecipitationSumIn
2013-6-1,79.0,68.4,63.9,69.4,65.8,62.4,99,92,62,29.89,29.71,8,3,12,0.24
2013-6-2,69.6,63.2,52.0,65.1,55.9,42.3,93,77,63,30.00,29.67,14,4,14,0.00
2013-6-3,67.1,54.6,39.7,47.9,40.5,25.2,99,62,36,30.08,30.00,8,2,11,0.00
2013-6-4,70.3,61.8,43.0,53.1,43.8,35.4,99,55,35,30.09,30.02,8,3,12,0.12
2013-6-5,71.4,61.8,43.3,47.7,39.0,26.4,57,44,33,30.09,29.97,14,5,16,0.00
2013-6-6,66.4,59.4,55.8,52.0,46.3,43.8,67,62,57,30.03,29.89,13,6,13,0.01
2013-6-7,59.5,54.5,51.6,52.7,50.7,49.1,93,87,78,29.92,29.90,4,3,4,0.00
2013-6-9,75.0,66.7,58.3,57.8,54.8,52.2,86,67,50,30.10,29.97,14,7,14,0.00
2013-6-10,73.8,68.3,61.2,72.7,64.7,50.2,99,89,55,29.96,29.74,10,4,10,1.11
2013-6-11,79.9,73.1,65.3,67.7,65.4,62.9,99,77,61,29.91,29.84,8,2,8,0.38
2013-6-12,73.6,68.4,60.1,70.6,66.2,59.8,99,93,80,29.96,29.68,8,2,10,0.13
2013-6-13,76.1,67.8,60.3,67.7,60.7,55.1,99,80,49,29.97,29.62,13,4,16,0.87
2013-6-14,73.0,64.9,56.8,60.8,54.7,49.1,99,72,45,30.10,29.97,8,2,11,0.00
2013-6-15,77.4,65.9,54.1,63.6,59.3,52.5,99,81,56,30.09,29.94,7,2,11,0.00
2013-6-16,79.3,69.7,63.7,67.6,62.4,53.4,99,80,45,29.94,29.80,11,3,14,0.26
2013-6-17,83.8,71.9,59.7,62.7,58.1,53.6,92,64,40,29.93,29.83,14,3,14,0.00
2013-6-18,69.6,62.1,53.4,61.4,51.0,39.4,99,71,37,30.09,29.91,13,5,18,0.13
2013-6-19,73.0,61.4,46.4,53.7,47.0,41.7,91,62,37,30.17,30.08,8,2,10,0.00
2013-6-20,79.9,67.8,53.2,56.9,53.1,46.9,96,63,37,30.21,30.15,9,2,9,0.00
2013-6-21,84.7,72.4,59.9,67.5,59.7,54.9,87,66,47,30.21,30.06,4,1,5,0.00
2013-6-22,84.7,76.5,69.1,73.8,67.7,57.4,96,75,62,30.10,30.00,11,2,12,0.00
2013-6-23,88.2,78.5,68.9,71.8,69.1,65.6,99,75,48,30.08,29.99,9,2,9,0.00
2013-6-24,85.1,76.3,67.5,73.4,69.4,66.4,99,80,58,30.07,29.93,10,2,11,0.02
2013-6-25,79.7,72.0,66.9,73.8,69.7,64.8,99,92,80,29.99,29.85,11,2,17,0.26
2013-6-26,80.8,73.0,64.4,73.4,69.2,64.1,99,88,71,29.90,29.77,7,2,12,0.01
2013-6-27,79.9,70.9,65.3,75.0,69.6,65.0,99,96,77,29.79,29.65,13,2,14,2.11
2013-6-28,77.0,70.4,63.9,70.1,65.5,62.3,99,93,65,29.66,29.55,8,2,14,0.01
2013-6-29,73.0,67.2,63.7,66.0,62.9,59.0,99,87,68,29.76,29.57,11,3,13,0.00
2013-6-30,78.3,69.0,62.4,63.4,59.5,46.7,92,73,50,30.03,29.76,15,4,17,0.00